Regional Weather Roundup
Issued by NWS Little Rock, AR

Home | Current Version | Previous Version | Text Only | Print | Product List | Glossary On
Versions: 1 2 3 4 5 6 7 8 9 10 11 12 13 14 15 16 17 18 19 20 21 22 23 24 25 26 27 28 29 30 31 32
000
ASUS44 KLZK 031405
RWRLZK

WEATHER ROUNDUP FOR ARKANSAS
NATIONAL WEATHER SERVICE LITTLE ROCK AR
800 AM CST SAT DEC 03 2016

NOTE: "FAIR" INDICATES FEW OR NO CLOUDS BELOW 12,000 FEET WITH NO
SIGNIFICANT WEATHER AND/OR OBSTRUCTIONS TO VISIBILITY.

ARZ001-003-010-029-031500-
NORTHWEST ARKANSAS

CITY           SKY/WX    TMP DP  RH WIND       PRES   REMARKS
FAYETTEVILLE   CLOUDY    45  34  65 NE3       30.21F
FORT SMITH     CLOUDY    48  39  71 E8        30.21F
HARRISON       CLOUDY    41  33  73 E6        30.26R
BENTONVILLE    CLOUDY    46  30  53 E5        30.22F
ROGERS         CLOUDY    45  35  68 E7        30.23S
SILOAM SPGS    CLOUDY    46  32  57 E3        30.21S
HIGHFILL       CLOUDY    47  35  63 E6        30.21F
$$

ARZ004-005-016-031500-
NORTH CENTRAL ARKANSAS

CITY           SKY/WX    TMP DP  RH WIND       PRES   REMARKS
BATESVILLE     CLOUDY    45  34  65 E5        30.32R
FLIPPIN        CLOUDY    43  30  61 E5        30.26R
MTN HOME       MOCLDY    42  32  67 SE6       30.28R
$$

ARZ040-041-031500-
WEST CENTRAL ARKANSAS

CITY           SKY/WX    TMP DP  RH WIND       PRES   REMARKS
MENA           CLOUDY    46  45  93 E5        30.22R
MOUNT IDA      LGT RAIN  45  43  93 CALM      30.21S
$$

ARZ009-017-025-026-028-031500-
NORTHEAST ARKANSAS

CITY           SKY/WX    TMP DP  RH WIND       PRES   REMARKS
CORNING        FAIR      41  36  81 NE10      30.33S
JONESBORO      CLOUDY    43  36  76 E10       30.31R
NEWPORT        CLOUDY    44  38  79 MISG        N/A
WALNUT RIDGE   CLOUDY    43  34  70 NE7       30.32R
BLYTHEVILLE    CLOUDY    44  34  67 E10       30.32S
$$

ARZ022-023-033-042-044-031500-
CENTRAL ARKANSAS

CITY           SKY/WX    TMP DP  RH WIND       PRES   REMARKS
LITTLE ROCK    CLOUDY    46  40  79 E6        30.27F
N LITTLE ROCK    N/A     45  40  82 E6        30.28S
JACKSONVILLE   CLOUDY    45  40  83 NE7       30.25F
SEARCY         LGT RAIN  45  39  79 NE7       30.30R
HOT SPRINGS    LGT RAIN  47  43  86 E7        30.25S
RUSSELLVILLE   CLOUDY    48  36  63 E7        30.25S
$$

ARZ036-031500-
EAST ARKANSAS

CITY           SKY/WX    TMP DP  RH WIND       PRES   REMARKS
WEST MEMPHIS   CLOUDY    46  33  60 E9        30.27F
$$

ARZ050-053-066-070-073-031500-
SOUTHWEST ARKANSAS

CITY           SKY/WX    TMP DP  RH WIND       PRES   REMARKS
CAMDEN         CLOUDY    45  41  87 NE3       30.24R
TEXARKANA      RAIN      46  44  93 E5        30.23R FOG
EL DORADO      CLOUDY    46  44  93 NE5       30.23R
DE QUEEN       LGT RAIN  46  45  96 E3        30.24R
$$

ARZ056-057-069-031500-
SOUTHEAST ARKANSAS

CITY           SKY/WX    TMP DP  RH WIND       PRES   REMARKS
PINE BLUFF     LGT RAIN  47  42  83 E5        30.27S
STUTTGART      CLOUDY    48  37  66 E3        30.27S VSB 3/4
MONTICELLO     CLOUDY    46  43  89 NE6       30.25S

$$






USA.gov is the U.S. government's official web portal to all federal, state and local government web resources and services.